Home > Time Zones > World Clock > Weather > Oman > Seeb > Past weeks

Flag for Oman Weather past 2 weeks in Seeb, Oman

Now
88 °F

Clear.


Feels Like: 98 °F
Forecast: 84 / 92 °F
Wind: 1 mph from North

Location: International Airport

Current Time: Aug 28, 2014 at 3:49:27 AM

Latest Report: Aug 28, 2014 at 2:50 AM


Visibility: 5 mi

Pressure: 29.53 "Hg

Humidity: 66%

Dew point: 75 °F

Location of SeebLocation

Historic Weather in Seeb — Graph

°F

Seeb temperature yesterday

Maximum temperature yesterday: 93 °F (at 8:50 AM)
Minimum temperature yesterday: 84 °F (at 5:50 AM)
Average temperature yesterday: 90 °F

Past Weeks' High & Low Weather Summary

 TemperatureHumidityPressure
High93 °F (Aug 15, 8:50 AM)94% (Aug 17, 4:50 AM)29.80 "Hg (Aug 17, 4:50 AM)
Low81 °F (Aug 13, 5:50 AM)52% (Aug 26, 4:50 AM)29.45 "Hg (Aug 15, 2:50 PM)
Average87 °F78%29.61 "Hg
* Reported Aug 13 2:50 AM — Aug 28 2:50 AM, Seeb, Weather by CustomWeather, © 2014

Note: Actual official high and low records may vary slightly from our data, if they occured in-between our weather recording intervals... More about our weather records

Advertising

Seeb weather history for previous 24 hours

 ConditionsComfort  
Time TempWeatherWind HumidityBarometerVisibility
2:50 AM
Aug 28
88 °FClear.1 mph66%29.53 "Hg5 mi
1:50 AM88 °FClear.2 mph70%29.53 "Hg5 mi
12:50 AM88 °FClear.6 mph75%29.56 "Hg5 mi
11:50 PM
Aug 27
90 °FClear.5 mph71%29.56 "Hg5 mi
10:50 PM90 °FClear.1 mph71%29.56 "Hg5 mi
9:50 PM93 °FClear.2 mph53%29.56 "Hg5 mi
8:50 PM91 °FClear.3 mph59%29.56 "Hg5 mi
7:50 PM90 °FClear.1 mph63%29.56 "Hg5 mi
6:50 PM91 °FClear.2 mph59%29.56 "Hg5 mi
5:50 PM91 °FPassing clouds.5 mph59%29.53 "Hg5 mi
4:50 PM91 °FClear.8 mph71%29.53 "Hg5 mi
3:50 PM91 °FPassing clouds.9 mph67%29.56 "Hg5 mi
2:50 PM91 °FPassing clouds.10 mph67%29.56 "Hg5 mi
1:50 PM91 °FClear.9 mph67%29.59 "Hg5 mi
12:50 PM93 °FClear.7 mph63%29.62 "Hg5 mi
11:50 AM91 °FClear.8 mph67%29.65 "Hg5 mi
10:50 AM90 °FClear.10 mph79%29.65 "Hg5 mi
9:50 AM93 °FClear.10 mph63%29.68 "Hg5 mi
8:50 AM93 °FClear.3 mph59%29.68 "Hg5 mi
7:50 AM91 °FClear.1 mph67%29.65 "Hg5 mi
6:50 AM88 °FClear.5 mph75%29.65 "Hg5 mi
5:50 AM84 °FClear.2 mph79%29.62 "Hg5 mi
4:50 AM86 °FClear.2 mph70%29.62 "Hg5 mi
3:50 AM86 °FClear.2 mph75%29.59 "Hg5 mi
Weather by CustomWeather, © 2014

See weather overviewHow to use our weather pages